Time,TemperatureF,DewpointF,PressureIn,WindDirection,WindDirectionDegrees,WindSpeedMPH,WindSpeedGustMPH,Humidity,HourlyPrecipIn,Conditions,Clouds,dailyrainin,SoftwareType,DateUTC
2013-08-12 00:00:00,58.5,50.2,30.17,North,9,0.0,0.0,74,0.00,CLR,CLR,0.00,WeatherDisplay:10.34,2013-08-12 04:00:00,
2013-08-12 00:01:00,58.3,50.0,30.17,North,9,0.0,0.0,74,0.00,CLR,CLR,0.00,WeatherDisplay:10.34,2013-08-12 04:01:00,
2013-08-12 00:02:00,58.3,50.0,30.17,North,9,0.0,0.0,74,0.00,CLR,CLR,0.00,WeatherDisplay:10.34,2013-08-12 04:02:00,
2013-08-12 00:04:00,58.3,50.0,30.17,North,9,0.0,0.0,74,0.00,CLR,CLR,0.00,WeatherDisplay:10.34,2013-08-12 04:04:00,
2013-08-12 00:06:00,58.3,50.0,30.17,North,9,0.0,3.0,74,0.00,CLR,CLR,0.00,WeatherDisplay:10.34,2013-08-12 04:06:00,
2013-08-12 00:07:00,58.3,50.4,30.17,North,9,0.0,0.0,75,0.00,CLR,CLR,0.00,WeatherDisplay:10.34,2013-08-12 04:07:00,
2013-08-12 00:10:00,58.3,50.4,30.17,North,9,0.0,0.0,75,0.00,CLR,CLR,0.00,WeatherDisplay:10.34,2013-08-12 04:10:00,
2013-08-12 00:15:00,58.3,50.4,30.17,North,9,0.0,0.0,75,0.00,CLR,CLR,0.00,WeatherDisplay:10.34,2013-08-12 04:15:00,
2013-08-12 00:20:00,58.1,50.6,30.17,North,9,0.0,0.0,76,0.00,CLR,CLR,0.00,WeatherDisplay:10.34,2013-08-12 04:20:00,
2013-08-12 00:25:00,58.1,50.6,30.17,North,9,0.0,2.0,76,0.00,CLR,CLR,0.00,WeatherDisplay:10.34,2013-08-12 04:25:00,
2013-08-12 00:30:00,58.1,50.6,30.17,North,9,0.0,0.0,76,0.00,CLR,CLR,0.00,WeatherDisplay:10.34,2013-08-12 04:30:00,
2013-08-12 00:35:00,58.1,50.9,30.17,North,9,0.0,0.0,77,0.00,CLR,CLR,0.00,WeatherDisplay:10.34,2013-08-12 04:35:00,
2013-08-12 00:40:00,58.1,51.3,30.17,North,9,0.0,0.0,78,0.00,CLR,CLR,0.00,WeatherDisplay:10.34,2013-08-12 04:40:00,
2013-08-12 00:45:00,57.9,51.1,30.17,North,9,0.0,0.0,78,0.00,CLR,CLR,0.00,WeatherDisplay:10.34,2013-08-12 04:45:00,
2013-08-12 00:50:00,57.9,51.1,30.17,North,9,0.0,0.0,78,0.00,CLR,CLR,0.00,WeatherDisplay:10.34,2013-08-12 04:50:00,
2013-08-12 00:55:00,58.1,51.3,30.17,West,281,0.0,3.0,78,0.00,CLR,CLR,0.00,WeatherDisplay:10.34,2013-08-12 04:55:00,
2013-08-12 01:00:00,58.1,50.9,30.17,West,281,0.0,0.0,77,0.00,CLR,CLR,0.00,WeatherDisplay:10.34,2013-08-12 05:00:00,
2013-08-12 01:05:00,58.3,51.1,30.17,West,280,0.0,5.0,77,0.00,CLR,CLR,0.00,WeatherDisplay:10.34,2013-08-12 05:05:00,
2013-08-12 01:10:00,58.1,50.2,30.17,West,279,0.0,0.0,75,0.00,CLR,CLR,0.00,WeatherDisplay:10.34,2013-08-12 05:10:00,
2013-08-12 01:15:00,58.1,50.2,30.17,West,279,0.0,0.0,75,0.00,CLR,CLR,0.00,WeatherDisplay:10.34,2013-08-12 05:15:00,
2013-08-12 01:20:00,58.1,50.6,30.17,West,279,0.0,0.0,76,0.00,CLR,CLR,0.00,WeatherDisplay:10.34,2013-08-12 05:20:00,
2013-08-12 01:25:00,57.9,50.4,30.17,West,279,0.0,0.0,76,0.00,CLR,CLR,0.00,WeatherDisplay:10.34,2013-08-12 05:25:00,
2013-08-12 01:30:00,57.7,50.6,30.17,West,280,0.0,0.0,77,0.00,CLR,CLR,0.00,WeatherDisplay:10.34,2013-08-12 05:30:00,
2013-08-12 01:35:00,57.6,50.4,30.17,West,279,0.0,0.0,77,0.00,CLR,CLR,0.00,WeatherDisplay:10.34,2013-08-12 05:35:00,
2013-08-12 01:40:00,57.6,50.8,30.17,West,279,0.0,0.0,78,0.00,CLR,CLR,0.00,WeatherDisplay:10.34,2013-08-12 05:40:00,
2013-08-12 01:45:00,57.6,50.8,30.16,West,279,0.0,0.0,78,0.00,CLR,CLR,0.00,WeatherDisplay:10.34,2013-08-12 05:45:00,
2013-08-12 01:50:00,57.6,51.1,30.17,West,280,0.0,0.0,79,0.00,CLR,CLR,0.00,WeatherDisplay:10.34,2013-08-12 05:50:00,
2013-08-12 01:55:00,57.6,51.1,30.17,West,279,0.0,0.0,79,0.00,CLR,CLR,0.00,WeatherDisplay:10.34,2013-08-12 05:55:00,
2013-08-12 02:00:00,57.6,51.1,30.17,West,280,0.0,0.0,79,0.00,CLR,CLR,0.00,WeatherDisplay:10.34,2013-08-12 06:00:00,
2013-08-12 02:05:00,57.6,51.1,30.17,West,279,0.0,0.0,79,0.00,SCT,SCT,0.00,WeatherDisplay:10.34,2013-08-12 06:05:00,
2013-08-12 02:10:00,57.6,51.1,30.16,West,279,0.0,0.0,79,0.00,SCT,SCT,0.00,WeatherDisplay:10.34,2013-08-12 06:10:00,
2013-08-12 02:15:00,57.7,51.3,30.16,West,279,0.0,0.0,79,0.00,SCT,SCT,0.00,WeatherDisplay:10.34,2013-08-12 06:15:00,
2013-08-12 02:20:00,57.7,51.3,30.17,West,279,0.0,0.0,79,0.00,SCT,SCT,0.00,WeatherDisplay:10.34,2013-08-12 06:20:00,
2013-08-12 02:25:00,57.7,51.3,30.17,West,279,0.0,0.0,79,0.00,SCT,SCT,0.00,WeatherDisplay:10.34,2013-08-12 06:25:00,
2013-08-12 02:30:00,57.7,51.3,30.17,West,279,0.0,0.0,79,0.00,SCT,SCT,0.00,WeatherDisplay:10.34,2013-08-12 06:30:00,
2013-08-12 02:36:00,57.7,51.6,30.17,West,279,0.0,0.0,80,0.00,SCT,SCT,0.00,WeatherDisplay:10.34,2013-08-12 06:36:00,
2013-08-12 02:41:00,57.7,51.6,30.17,West,279,0.0,0.0,80,0.00,SCT,SCT,0.00,WeatherDisplay:10.34,2013-08-12 06:41:00,
2013-08-12 02:46:00,57.7,51.6,30.17,West,279,0.0,0.0,80,0.00,SCT,SCT,0.00,WeatherDisplay:10.34,2013-08-12 06:46:00,
2013-08-12 02:51:00,57.7,51.6,30.17,West,279,0.0,0.0,80,0.00,SCT,SCT,0.00,WeatherDisplay:10.34,2013-08-12 06:51:00,
2013-08-12 02:56:00,57.9,51.8,30.16,West,279,0.0,0.0,80,0.00,SCT,SCT,0.00,WeatherDisplay:10.34,2013-08-12 06:56:00,
2013-08-12 03:01:00,57.9,51.4,30.16,West,279,0.0,0.0,79,0.00,SCT,SCT,0.00,WeatherDisplay:10.34,2013-08-12 07:01:00,
2013-08-12 03:06:00,57.9,51.4,30.13,West,279,0.0,0.0,79,0.00,CLR,CLR,0.00,WeatherDisplay:10.34,2013-08-12 07:06:00,
2013-08-12 03:11:00,57.9,51.4,30.13,West,279,0.0,0.0,79,0.00,CLR,CLR,0.00,WeatherDisplay:10.34,2013-08-12 07:11:00,
2013-08-12 03:16:00,57.9,51.4,30.13,West,279,0.0,0.0,79,0.00,CLR,CLR,0.00,WeatherDisplay:10.34,2013-08-12 07:16:00,
2013-08-12 03:21:00,57.9,51.4,30.13,West,279,0.0,0.0,79,0.00,CLR,CLR,0.00,WeatherDisplay:10.34,2013-08-12 07:21:00,
2013-08-12 03:26:00,57.9,51.4,30.13,West,279,0.0,0.0,79,0.00,CLR,CLR,0.00,WeatherDisplay:10.34,2013-08-12 07:26:00,
2013-08-12 03:31:00,58.1,52.0,30.13,West,279,0.0,0.0,80,0.00,CLR,CLR,0.00,WeatherDisplay:10.34,2013-08-12 07:31:00,
2013-08-12 03:36:00,58.1,52.0,30.13,West,279,0.0,0.0,80,0.00,CLR,CLR,0.00,WeatherDisplay:10.34,2013-08-12 07:36:00,
2013-08-12 03:41:00,58.1,52.0,30.13,West,281,0.0,2.0,80,0.00,CLR,CLR,0.00,WeatherDisplay:10.34,2013-08-12 07:41:00,
2013-08-12 03:46:00,58.1,51.6,30.13,West,268,0.0,3.0,79,0.00,CLR,CLR,0.00,WeatherDisplay:10.34,2013-08-12 07:46:00,
2013-08-12 03:51:00,58.1,51.6,30.13,West,268,0.0,2.0,79,0.00,CLR,CLR,0.00,WeatherDisplay:10.34,2013-08-12 07:51:00,
2013-08-12 03:56:00,58.3,51.8,30.13,West,280,3.0,5.0,79,0.00,CLR,CLR,0.00,WeatherDisplay:10.34,2013-08-12 07:56:00,
2013-08-12 04:01:00,58.5,51.6,30.13,North,0,0.0,0.0,78,0.00,CLR,CLR,0.00,WeatherDisplay:10.34,2013-08-12 08:01:00,
2013-08-12 04:06:00,58.5,51.6,30.13,North,1,0.0,3.0,78,0.00,CLR,CLR,0.00,WeatherDisplay:10.34,2013-08-12 08:06:00,
2013-08-12 04:11:00,58.5,51.6,30.13,North,3,0.0,0.0,78,0.00,CLR,CLR,0.00,WeatherDisplay:10.34,2013-08-12 08:11:00,
2013-08-12 04:16:00,58.3,51.4,30.13,North,4,0.0,0.0,78,0.00,CLR,CLR,0.00,WeatherDisplay:10.34,2013-08-12 08:16:00,
2013-08-12 04:21:00,58.3,51.4,30.13,North,3,0.0,0.0,78,0.00,CLR,CLR,0.00,WeatherDisplay:10.34,2013-08-12 08:21:00,
2013-08-12 04:26:00,58.1,51.3,30.13,North,1,0.0,0.0,78,0.00,CLR,CLR,0.00,WeatherDisplay:10.34,2013-08-12 08:26:00,
2013-08-12 04:31:00,58.1,51.3,30.13,North,1,0.0,2.0,78,0.00,CLR,CLR,0.00,WeatherDisplay:10.34,2013-08-12 08:31:00,
2013-08-12 04:36:00,58.1,51.3,30.13,North,0,0.0,3.0,78,0.00,CLR,CLR,0.00,WeatherDisplay:10.34,2013-08-12 08:36:00,
2013-08-12 04:41:00,57.9,51.1,30.13,North,1,0.0,0.0,78,0.00,CLR,CLR,0.00,WeatherDisplay:10.34,2013-08-12 08:41:00,
2013-08-12 04:46:00,57.9,51.1,30.13,North,4,0.0,0.0,78,0.00,CLR,CLR,0.00,WeatherDisplay:10.34,2013-08-12 08:46:00,
2013-08-12 04:51:00,57.9,51.1,30.13,North,5,0.0,0.0,78,0.00,CLR,CLR,0.00,WeatherDisplay:10.34,2013-08-12 08:51:00,
2013-08-12 04:56:00,57.7,50.9,30.13,North,3,0.0,0.0,78,0.00,CLR,CLR,0.00,WeatherDisplay:10.34,2013-08-12 08:56:00,
2013-08-12 05:01:00,57.6,50.8,30.13,North,0,0.0,0.0,78,0.00,CLR,CLR,0.00,WeatherDisplay:10.34,2013-08-12 09:01:00,
2013-08-12 05:06:00,57.6,50.8,30.13,North,5,0.0,0.0,78,0.00,CLR,CLR,0.00,WeatherDisplay:10.34,2013-08-12 09:06:00,
2013-08-12 05:11:00,57.6,50.8,30.13,North,9,0.0,0.0,78,0.00,CLR,CLR,0.00,WeatherDisplay:10.34,2013-08-12 09:11:00,
2013-08-12 05:16:00,57.6,51.1,30.13,NNE,29,0.0,3.0,79,0.00,CLR,CLR,0.00,WeatherDisplay:10.34,2013-08-12 09:16:00,
2013-08-12 05:21:00,57.6,51.1,30.13,NNE,30,0.0,2.0,79,0.00,CLR,CLR,0.00,WeatherDisplay:10.34,2013-08-12 09:21:00,
2013-08-12 05:26:00,57.7,51.3,30.13,NNE,29,0.0,0.0,79,0.00,CLR,CLR,0.00,WeatherDisplay:10.34,2013-08-12 09:26:00,
2013-08-12 05:31:00,57.7,51.3,30.13,NNE,33,0.0,0.0,79,0.00,CLR,CLR,0.00,WeatherDisplay:10.34,2013-08-12 09:31:00,
2013-08-12 05:36:00,57.7,51.6,30.13,NNW,343,0.0,2.0,80,0.00,CLR,CLR,0.00,WeatherDisplay:10.34,2013-08-12 09:36:00,
2013-08-12 05:41:00,57.7,51.6,30.13,NNW,343,0.0,0.0,80,0.00,CLR,CLR,0.00,WeatherDisplay:10.34,2013-08-12 09:41:00,
2013-08-12 05:46:00,57.9,51.8,30.13,NNW,344,0.0,0.0,80,0.00,CLR,CLR,0.00,WeatherDisplay:10.34,2013-08-12 09:46:00,
2013-08-12 05:51:00,57.9,51.8,30.16,NNW,343,0.0,0.0,80,0.00,CLR,CLR,0.00,WeatherDisplay:10.34,2013-08-12 09:51:00,
2013-08-12 05:56:00,57.9,51.8,30.16,NNW,343,0.0,0.0,80,0.00,CLR,CLR,0.00,WeatherDisplay:10.34,2013-08-12 09:56:00,
2013-08-12 06:01:00,58.1,52.0,30.16,NNW,344,0.0,0.0,80,0.00,CLR,CLR,0.00,WeatherDisplay:10.34,2013-08-12 10:01:00,
2013-08-12 06:06:00,57.9,52.1,30.16,NNW,344,0.0,0.0,81,0.00,CLR,CLR,0.00,WeatherDisplay:10.34,2013-08-12 10:06:00,
2013-08-12 06:11:00,58.1,52.6,30.16,WSW,243,0.0,5.0,82,0.00,CLR,CLR,0.00,WeatherDisplay:10.34,2013-08-12 10:11:00,
2013-08-12 06:17:00,58.3,52.8,30.13,West,268,3.0,3.0,82,0.00,CLR,CLR,0.00,WeatherDisplay:10.34,2013-08-12 10:17:00,
2013-08-12 06:22:00,58.5,53.0,30.13,WSW,250,4.0,4.0,82,0.00,CLR,CLR,0.00,WeatherDisplay:10.34,2013-08-12 10:22:00,
2013-08-12 06:27:00,58.5,53.0,30.13,West,277,4.0,6.0,82,0.00,CLR,CLR,0.00,WeatherDisplay:10.34,2013-08-12 10:27:00,
2013-08-12 06:32:00,58.6,53.2,30.16,NW,313,0.0,3.0,82,0.00,CLR,CLR,0.00,WeatherDisplay:10.34,2013-08-12 10:32:00,
2013-08-12 06:37:00,58.8,53.0,30.16,SW,236,0.0,3.0,81,0.00,CLR,CLR,0.00,WeatherDisplay:10.34,2013-08-12 10:37:00,
2013-08-12 06:42:00,59.0,53.2,30.16,North,351,3.0,3.0,81,0.00,CLR,CLR,0.00,WeatherDisplay:10.34,2013-08-12 10:42:00,
2013-08-12 06:47:00,59.0,52.8,30.17,North,0,3.0,5.0,80,0.00,CLR,CLR,0.00,WeatherDisplay:10.34,2013-08-12 10:47:00,
2013-08-12 06:52:00,59.2,52.7,30.17,North,351,0.0,3.0,79,0.00,CLR,CLR,0.00,WeatherDisplay:10.34,2013-08-12 10:52:00,
2013-08-12 06:57:00,59.2,52.3,30.17,NNE,24,3.0,3.0,78,0.00,CLR,CLR,0.00,WeatherDisplay:10.34,2013-08-12 10:57:00,
2013-08-12 07:02:00,59.4,52.5,30.14,NNE,16,4.0,6.0,78,0.00,CLR,CLR,0.00,WeatherDisplay:10.34,2013-08-12 11:02:00,
2013-08-12 07:07:00,59.4,52.5,30.14,NNW,332,3.0,5.0,78,0.00,CLR,CLR,0.00,WeatherDisplay:10.34,2013-08-12 11:07:00,
2013-08-12 07:12:00,59.4,52.1,30.14,NNW,340,4.0,6.0,77,0.00,CLR,CLR,0.00,WeatherDisplay:10.34,2013-08-12 11:12:00,
2013-08-12 07:17:00,59.7,52.5,30.17,NW,306,0.0,3.0,77,0.00,CLR,CLR,0.00,WeatherDisplay:10.34,2013-08-12 11:17:00,
2013-08-12 07:22:00,59.7,52.1,30.17,NNW,327,3.0,3.0,76,0.00,CLR,CLR,0.00,WeatherDisplay:10.34,2013-08-12 11:22:00,
2013-08-12 07:27:00,59.9,52.3,30.17,NW,322,3.0,5.0,76,0.00,CLR,CLR,0.00,WeatherDisplay:10.34,2013-08-12 11:27:00,
2013-08-12 07:32:00,60.1,52.1,30.17,NNE,13,3.0,3.0,75,0.00,CLR,CLR,0.00,WeatherDisplay:10.34,2013-08-12 11:32:00,
2013-08-12 07:37:00,60.3,51.9,30.17,NW,313,3.0,3.0,74,0.00,CLR,CLR,0.00,WeatherDisplay:10.34,2013-08-12 11:37:00,
2013-08-12 07:42:00,60.3,52.3,30.17,NNW,336,3.0,5.0,75,0.00,CLR,CLR,0.00,WeatherDisplay:10.34,2013-08-12 11:42:00,
2013-08-12 07:47:00,60.4,52.1,30.17,NNW,342,0.0,0.0,74,0.00,CLR,CLR,0.00,WeatherDisplay:10.34,2013-08-12 11:47:00,
2013-08-12 07:52:00,60.6,52.3,30.17,WSW,254,0.0,0.0,74,0.00,CLR,CLR,0.00,WeatherDisplay:10.34,2013-08-12 11:52:00,
2013-08-12 07:57:00,60.8,52.1,30.17,WSW,239,0.0,2.0,73,0.00,CLR,CLR,0.00,WeatherDisplay:10.34,2013-08-12 11:57:00,
2013-08-12 08:02:00,61.0,52.3,30.17,West,276,3.0,3.0,73,0.00,CLR,CLR,0.00,WeatherDisplay:10.34,2013-08-12 12:02:00,
2013-08-12 08:07:00,61.2,52.4,30.17,WSW,241,0.0,3.0,73,0.00,CLR,CLR,0.00,WeatherDisplay:10.34,2013-08-12 12:07:00,
2013-08-12 08:12:00,61.3,52.6,30.17,NNW,327,0.0,0.0,73,0.00,CLR,CLR,0.00,WeatherDisplay:10.34,2013-08-12 12:12:00,
2013-08-12 08:17:00,61.5,52.8,30.17,North,6,3.0,5.0,73,0.00,CLR,CLR,0.00,WeatherDisplay:10.34,2013-08-12 12:17:00,
2013-08-12 08:22:00,61.7,52.6,30.17,WSW,246,0.0,0.0,72,0.00,CLR,CLR,0.00,WeatherDisplay:10.34,2013-08-12 12:22:00,
2013-08-12 08:27:00,61.9,52.8,30.17,North,0,0.0,0.0,72,0.00,CLR,CLR,0.00,WeatherDisplay:10.34,2013-08-12 12:27:00,
2013-08-12 08:32:00,62.1,52.9,30.17,NW,325,0.0,3.0,72,0.00,CLR,CLR,0.00,WeatherDisplay:10.34,2013-08-12 12:32:00,
2013-08-12 08:37:00,62.2,52.7,30.17,North,0,0.0,3.0,71,0.00,CLR,CLR,0.00,WeatherDisplay:10.34,2013-08-12 12:37:00,
2013-08-12 08:42:00,62.6,51.9,30.17,North,1,0.0,3.0,68,0.00,CLR,CLR,0.00,WeatherDisplay:10.34,2013-08-12 12:42:00,
2013-08-12 08:47:00,63.0,51.8,30.17,North,0,0.0,0.0,67,0.00,CLR,CLR,0.00,WeatherDisplay:10.34,2013-08-12 12:47:00,
2013-08-12 08:52:00,63.0,51.4,30.17,North,4,4.0,5.0,66,0.00,CLR,CLR,0.00,WeatherDisplay:10.34,2013-08-12 12:52:00,
2013-08-12 08:57:00,63.3,51.8,30.17,NNE,14,0.0,6.0,66,0.00,CLR,CLR,0.00,WeatherDisplay:10.34,2013-08-12 12:57:00,
2013-08-12 09:02:00,63.3,51.8,30.17,North,9,3.0,6.0,66,0.00,CLR,CLR,0.00,WeatherDisplay:10.34,2013-08-12 13:02:00,
2013-08-12 09:07:00,63.5,51.9,30.14,WSW,257,3.0,3.0,66,0.00,CLR,CLR,0.00,WeatherDisplay:10.34,2013-08-12 13:07:00,
2013-08-12 09:12:00,63.9,51.9,30.14,SW,218,0.0,5.0,65,0.00,CLR,CLR,0.00,WeatherDisplay:10.34,2013-08-12 13:12:00,
2013-08-12 09:17:00,64.0,51.6,30.14,SW,229,3.0,5.0,64,0.00,CLR,CLR,0.00,WeatherDisplay:10.34,2013-08-12 13:17:00,
2013-08-12 09:22:00,64.2,51.4,30.14,North,11,4.0,5.0,63,0.00,CLR,CLR,0.00,WeatherDisplay:10.34,2013-08-12 13:22:00,
2013-08-12 09:27:00,64.4,51.5,30.14,North,11,0.0,3.0,63,0.00,CLR,CLR,0.00,WeatherDisplay:10.34,2013-08-12 13:27:00,
2013-08-12 09:32:00,64.8,51.9,30.17,South,191,4.0,6.0,63,0.00,CLR,CLR,0.00,WeatherDisplay:10.34,2013-08-12 13:32:00,
2013-08-12 09:37:00,64.8,51.9,30.17,West,273,0.0,3.0,63,0.00,CLR,CLR,0.00,WeatherDisplay:10.34,2013-08-12 13:37:00,
2013-08-12 09:42:00,64.9,51.2,30.17,SW,226,3.0,5.0,61,0.00,CLR,CLR,0.00,WeatherDisplay:10.34,2013-08-12 13:42:00,
2013-08-12 09:47:00,65.3,51.1,30.17,North,11,3.0,5.0,60,0.00,CLR,CLR,0.00,WeatherDisplay:10.34,2013-08-12 13:47:00,
2013-08-12 09:52:00,65.5,51.2,30.17,North,10,4.0,5.0,60,0.00,CLR,CLR,0.00,WeatherDisplay:10.34,2013-08-12 13:52:00,
2013-08-12 09:57:00,65.7,50.9,30.17,North,8,5.0,7.0,59,0.00,CLR,CLR,0.00,WeatherDisplay:10.34,2013-08-12 13:57:00,
2013-08-12 10:02:00,65.8,51.1,30.17,NW,317,3.0,6.0,59,0.00,CLR,CLR,0.00,WeatherDisplay:10.34,2013-08-12 14:02:00,
2013-08-12 10:07:00,66.0,50.3,30.17,West,262,3.0,3.0,57,0.00,CLR,CLR,0.00,WeatherDisplay:10.34,2013-08-12 14:07:00,
2013-08-12 10:12:00,66.2,50.0,30.17,NNW,345,4.0,5.0,56,0.00,CLR,CLR,0.00,WeatherDisplay:10.34,2013-08-12 14:12:00,
2013-08-12 10:17:00,66.4,49.7,30.14,WSW,256,0.0,0.0,55,0.00,CLR,CLR,0.00,WeatherDisplay:10.34,2013-08-12 14:17:00,
2013-08-12 10:22:00,66.6,49.9,30.14,WSW,252,4.0,5.0,55,0.00,CLR,CLR,0.00,WeatherDisplay:10.34,2013-08-12 14:22:00,
2013-08-12 10:27:00,66.9,49.7,30.14,West,259,4.0,5.0,54,0.00,CLR,CLR,0.00,WeatherDisplay:10.34,2013-08-12 14:27:00,
2013-08-12 10:32:00,66.9,47.1,30.14,SSW,203,3.0,5.0,49,0.00,CLR,CLR,0.00,WeatherDisplay:10.34,2013-08-12 14:32:00,
2013-08-12 10:37:00,67.5,47.6,30.14,SSW,203,0.0,3.0,49,0.00,CLR,CLR,0.00,WeatherDisplay:10.34,2013-08-12 14:37:00,
2013-08-12 10:42:00,67.8,48.5,30.14,SSW,195,3.0,6.0,50,0.00,CLR,CLR,0.00,WeatherDisplay:10.34,2013-08-12 14:42:00,
2013-08-12 10:47:00,68.0,47.0,30.14,SW,220,4.0,4.0,47,0.00,CLR,CLR,0.00,WeatherDisplay:10.34,2013-08-12 14:47:00,
2013-08-12 10:52:00,68.0,47.0,30.14,NNW,344,4.0,5.0,47,0.00,CLR,CLR,0.00,WeatherDisplay:10.34,2013-08-12 14:52:00,
2013-08-12 10:57:00,67.8,46.3,30.14,North,7,4.0,6.0,46,0.00,CLR,CLR,0.00,WeatherDisplay:10.34,2013-08-12 14:57:00,
2013-08-12 11:02:00,68.0,47.0,30.14,North,7,4.0,6.0,47,0.00,CLR,CLR,0.00,WeatherDisplay:10.34,2013-08-12 15:02:00,
2013-08-12 11:07:00,67.6,46.7,30.14,West,262,4.0,7.0,47,0.00,CLR,CLR,0.00,WeatherDisplay:10.34,2013-08-12 15:07:00,
2013-08-12 11:12:00,67.8,46.8,30.14,NW,324,4.0,5.0,47,0.00,CLR,CLR,0.00,WeatherDisplay:10.34,2013-08-12 15:12:00,
2013-08-12 11:17:00,68.0,46.4,30.14,North,4,6.0,7.0,46,0.00,CLR,CLR,0.00,WeatherDisplay:10.34,2013-08-12 15:17:00,
2013-08-12 11:22:00,68.2,46.0,30.14,North,6,4.0,9.0,45,0.00,CLR,CLR,0.00,WeatherDisplay:10.34,2013-08-12 15:22:00,
2013-08-12 11:27:00,68.2,46.6,30.14,NNE,26,4.0,5.0,46,0.00,CLR,CLR,0.00,WeatherDisplay:10.34,2013-08-12 15:27:00,
2013-08-12 11:33:00,68.4,46.8,30.14,NNW,331,4.0,4.0,46,0.00,CLR,CLR,0.00,WeatherDisplay:10.34,2013-08-12 15:33:00,
2013-08-12 11:38:00,68.2,46.6,30.14,NNW,332,3.0,3.0,46,0.00,CLR,CLR,0.00,WeatherDisplay:10.34,2013-08-12 15:38:00,
2013-08-12 11:43:00,68.2,47.2,30.14,West,273,4.0,6.0,47,0.00,CLR,CLR,0.00,WeatherDisplay:10.34,2013-08-12 15:43:00,
2013-08-12 11:48:00,68.5,47.5,30.14,WSW,244,3.0,6.0,47,0.00,CLR,CLR,0.00,WeatherDisplay:10.34,2013-08-12 15:48:00,
2013-08-12 11:53:00,68.9,47.3,30.13,WSW,255,4.0,5.0,46,0.00,CLR,CLR,0.00,WeatherDisplay:10.34,2013-08-12 15:53:00,
2013-08-12 11:58:00,69.1,46.8,30.13,North,2,3.0,5.0,45,0.00,CLR,CLR,0.00,WeatherDisplay:10.34,2013-08-12 15:58:00,
2013-08-12 12:03:00,68.9,47.8,30.13,North,351,0.0,3.0,47,0.00,CLR,CLR,0.00,WeatherDisplay:10.34,2013-08-12 16:03:00,
2013-08-12 12:08:00,69.1,48.6,30.13,NW,323,0.0,3.0,48,0.00,CLR,CLR,0.00,WeatherDisplay:10.34,2013-08-12 16:08:00,
2013-08-12 12:13:00,69.4,47.2,30.13,South,188,3.0,7.0,45,0.00,CLR,CLR,0.00,WeatherDisplay:10.34,2013-08-12 16:13:00,
2013-08-12 12:19:00,70.2,46.0,30.10,WSW,257,6.0,9.0,42,0.00,CLR,CLR,0.00,WeatherDisplay:10.34,2013-08-12 16:19:00,
2013-08-12 12:24:00,70.3,46.2,30.10,SSW,196,4.0,6.0,42,0.00,CLR,CLR,0.00,WeatherDisplay:10.34,2013-08-12 16:24:00,
2013-08-12 12:29:00,70.5,46.9,30.10,SW,214,4.0,7.0,43,0.00,CLR,CLR,0.00,WeatherDisplay:10.34,2013-08-12 16:29:00,
2013-08-12 12:34:00,70.7,46.5,30.10,North,3,4.0,8.0,42,0.00,CLR,CLR,0.00,WeatherDisplay:10.34,2013-08-12 16:34:00,
2013-08-12 12:39:00,71.1,46.2,30.10,South,179,5.0,9.0,41,0.00,CLR,CLR,0.00,WeatherDisplay:10.34,2013-08-12 16:39:00,
2013-08-12 12:44:00,71.4,45.8,30.10,SSW,194,0.0,7.0,40,0.00,CLR,CLR,0.00,WeatherDisplay:10.34,2013-08-12 16:44:00,
2013-08-12 12:49:00,71.6,45.3,30.10,NW,313,4.0,8.0,39,0.00,CLR,CLR,0.00,WeatherDisplay:10.34,2013-08-12 16:49:00,
2013-08-12 12:54:00,71.4,45.2,30.10,NE,42,4.0,6.0,39,0.00,CLR,CLR,0.00,WeatherDisplay:10.34,2013-08-12 16:54:00,
2013-08-12 12:59:00,71.4,45.8,30.10,NE,45,7.0,12.0,40,0.00,CLR,CLR,0.00,WeatherDisplay:10.34,2013-08-12 16:59:00,
2013-08-12 13:04:00,71.4,44.5,30.10,SSW,194,4.0,6.0,38,0.00,BKN,BKN,0.00,WeatherDisplay:10.34,2013-08-12 17:04:00,
2013-08-12 13:09:00,71.8,44.8,30.10,West,263,6.0,9.0,38,0.00,BKN,BKN,0.00,WeatherDisplay:10.34,2013-08-12 17:09:00,
2013-08-12 13:14:00,72.1,45.8,30.10,South,174,4.0,9.0,39,0.00,BKN,BKN,0.00,WeatherDisplay:10.34,2013-08-12 17:14:00,
2013-08-12 13:19:00,72.5,44.0,30.10,SSE,168,6.0,8.0,36,0.00,BKN,BKN,0.00,WeatherDisplay:10.34,2013-08-12 17:19:00,
2013-08-12 13:24:00,72.1,44.4,30.10,SSE,165,5.0,8.0,37,0.00,BKN,BKN,0.00,WeatherDisplay:10.34,2013-08-12 17:24:00,
2013-08-12 13:29:00,72.1,44.4,30.10,WSW,242,5.0,7.0,37,0.00,BKN,BKN,0.00,WeatherDisplay:10.34,2013-08-12 17:29:00,
2013-08-12 13:34:00,72.3,43.9,30.10,SSE,156,4.0,7.0,36,0.00,BKN,BKN,0.00,WeatherDisplay:10.34,2013-08-12 17:34:00,
2013-08-12 13:39:00,72.1,43.0,30.10,SSW,212,4.0,7.0,35,0.00,BKN,BKN,0.00,WeatherDisplay:10.34,2013-08-12 17:39:00,
2013-08-12 13:44:00,72.1,43.7,30.10,SE,131,4.0,5.0,36,0.00,BKN,BKN,0.00,WeatherDisplay:10.34,2013-08-12 17:44:00,
2013-08-12 13:49:00,72.3,43.1,30.10,ENE,59,4.0,6.0,35,0.00,BKN,BKN,0.00,WeatherDisplay:10.34,2013-08-12 17:49:00,
2013-08-12 13:54:00,72.3,43.1,30.10,NW,312,4.0,8.0,35,0.00,BKN,BKN,0.00,WeatherDisplay:10.34,2013-08-12 17:54:00,
2013-08-12 13:59:00,72.9,43.6,30.10,South,178,7.0,8.0,35,0.00,BKN,BKN,0.00,WeatherDisplay:10.34,2013-08-12 17:59:00,
2013-08-12 14:04:00,73.2,43.2,30.10,NNE,14,6.0,7.0,34,0.00,BKN,BKN,0.00,WeatherDisplay:10.34,2013-08-12 18:04:00,
2013-08-12 14:09:00,73.2,43.2,30.10,NNW,329,4.0,6.0,34,0.00,BKN,BKN,0.00,WeatherDisplay:10.34,2013-08-12 18:09:00,
2013-08-12 14:15:00,73.4,43.3,30.10,WNW,282,4.0,7.0,34,0.00,BKN,BKN,0.00,WeatherDisplay:10.34,2013-08-12 18:15:00,
2013-08-12 14:21:00,73.6,42.7,30.10,NNE,33,6.0,7.0,33,0.00,BKN,BKN,0.00,WeatherDisplay:10.34,2013-08-12 18:21:00,
2013-08-12 14:27:00,73.8,44.4,30.10,North,3,4.0,7.0,35,0.00,BKN,BKN,0.00,WeatherDisplay:10.34,2013-08-12 18:27:00,
2013-08-12 14:32:00,73.8,43.6,30.10,SSW,212,6.0,10.0,34,0.00,BKN,BKN,0.00,WeatherDisplay:10.34,2013-08-12 18:32:00,
2013-08-12 14:38:00,73.9,43.8,30.10,WSW,253,4.0,10.0,34,0.00,BKN,BKN,0.00,WeatherDisplay:10.34,2013-08-12 18:38:00,
2013-08-12 14:43:00,74.1,43.2,30.10,SW,226,6.0,10.0,33,0.00,BKN,BKN,0.00,WeatherDisplay:10.34,2013-08-12 18:43:00,
2013-08-12 14:48:00,73.9,42.2,30.10,North,10,6.0,12.0,32,0.00,BKN,BKN,0.00,WeatherDisplay:10.34,2013-08-12 18:48:00,
2013-08-12 14:54:00,73.9,43.0,30.10,South,170,4.0,6.0,33,0.00,BKN,BKN,0.00,WeatherDisplay:10.34,2013-08-12 18:54:00,
2013-08-12 14:59:00,73.9,43.8,30.10,WSW,255,3.0,7.0,34,0.00,BKN,BKN,0.00,WeatherDisplay:10.34,2013-08-12 18:59:00,
2013-08-12 15:05:00,74.1,43.2,30.10,WNW,291,4.0,6.0,33,0.00,SCT,SCT,0.00,WeatherDisplay:10.34,2013-08-12 19:05:00,
2013-08-12 15:10:00,74.3,43.3,30.10,NNE,12,5.0,6.0,33,0.00,SCT,SCT,0.00,WeatherDisplay:10.34,2013-08-12 19:10:00,
2013-08-12 15:15:00,73.9,42.2,30.10,SSE,163,7.0,12.0,32,0.00,SCT,SCT,0.00,WeatherDisplay:10.34,2013-08-12 19:15:00,
2013-08-12 15:20:00,74.1,43.2,30.10,West,275,5.0,8.0,33,0.00,SCT,SCT,0.00,WeatherDisplay:10.34,2013-08-12 19:20:00,
2013-08-12 15:26:00,74.3,43.3,30.10,NW,314,4.0,6.0,33,0.00,SCT,SCT,0.00,WeatherDisplay:10.34,2013-08-12 19:26:00,
2013-08-12 15:31:00,74.3,43.3,30.10,South,180,3.0,7.0,33,0.00,SCT,SCT,0.00,WeatherDisplay:10.34,2013-08-12 19:31:00,
2013-08-12 15:36:00,74.3,43.3,30.10,WSW,241,5.0,7.0,33,0.00,SCT,SCT,0.00,WeatherDisplay:10.34,2013-08-12 19:36:00,
2013-08-12 15:41:00,74.1,43.2,30.10,WNW,302,5.0,9.0,33,0.00,SCT,SCT,0.00,WeatherDisplay:10.34,2013-08-12 19:41:00,
2013-08-12 15:46:00,74.1,42.4,30.10,SW,231,5.0,9.0,32,0.00,SCT,SCT,0.00,WeatherDisplay:10.34,2013-08-12 19:46:00,
2013-08-12 15:51:00,73.9,43.0,30.07,NNW,331,4.0,5.0,33,0.00,SCT,SCT,0.00,WeatherDisplay:10.34,2013-08-12 19:51:00,
2013-08-12 15:56:00,73.9,43.0,30.07,North,351,4.0,7.0,33,0.00,SCT,SCT,0.00,WeatherDisplay:10.34,2013-08-12 19:56:00,
2013-08-12 16:01:00,73.9,43.8,30.07,WSW,239,4.0,7.0,34,0.00,SCT,SCT,0.00,WeatherDisplay:10.34,2013-08-12 20:01:00,
2013-08-12 16:06:00,74.1,43.2,30.07,West,274,6.0,10.0,33,0.00,SCT,SCT,0.00,WeatherDisplay:10.34,2013-08-12 20:06:00,
2013-08-12 16:11:00,73.9,43.0,30.07,ENE,58,4.0,7.0,33,0.00,SCT,SCT,0.00,WeatherDisplay:10.34,2013-08-12 20:11:00,
2013-08-12 16:17:00,74.1,43.2,30.07,West,270,5.0,8.0,33,0.00,SCT,SCT,0.00,WeatherDisplay:10.34,2013-08-12 20:17:00,
2013-08-12 16:22:00,74.1,43.2,30.07,NNE,29,5.0,7.0,33,0.00,SCT,SCT,0.00,WeatherDisplay:10.34,2013-08-12 20:22:00,
2013-08-12 16:27:00,74.1,43.2,30.07,NW,318,4.0,6.0,33,0.00,SCT,SCT,0.00,WeatherDisplay:10.34,2013-08-12 20:27:00,
2013-08-12 16:32:00,74.1,43.2,30.07,North,11,4.0,5.0,33,0.00,SCT,SCT,0.00,WeatherDisplay:10.34,2013-08-12 20:32:00,
2013-08-12 16:37:00,74.1,43.2,30.07,NNW,336,4.0,4.0,33,0.00,SCT,SCT,0.00,WeatherDisplay:10.34,2013-08-12 20:37:00,
2013-08-12 16:42:00,74.1,43.2,30.07,West,273,4.0,7.0,33,0.00,SCT,SCT,0.00,WeatherDisplay:10.34,2013-08-12 20:42:00,
2013-08-12 16:47:00,74.1,43.2,30.07,NE,49,4.0,5.0,33,0.00,SCT,SCT,0.00,WeatherDisplay:10.34,2013-08-12 20:47:00,
2013-08-12 16:52:00,74.1,43.2,30.07,WSW,237,4.0,7.0,33,0.00,SCT,SCT,0.00,WeatherDisplay:10.34,2013-08-12 20:52:00,
2013-08-12 16:57:00,74.3,44.1,30.07,WNW,295,3.0,6.0,34,0.00,SCT,SCT,0.00,WeatherDisplay:10.34,2013-08-12 20:57:00,
2013-08-12 17:02:00,74.3,44.1,30.07,WSW,239,6.0,9.0,34,0.00,SCT,SCT,0.00,WeatherDisplay:10.34,2013-08-12 21:02:00,
2013-08-12 17:07:00,74.3,43.3,30.07,SSW,200,6.0,8.0,33,0.00,CLR,CLR,0.00,WeatherDisplay:10.34,2013-08-12 21:07:00,
2013-08-12 17:12:00,74.3,43.3,30.07,WSW,240,3.0,8.0,33,0.00,CLR,CLR,0.00,WeatherDisplay:10.34,2013-08-12 21:12:00,
2013-08-12 17:17:00,74.3,44.1,30.07,SSW,205,4.0,6.0,34,0.00,CLR,CLR,0.00,WeatherDisplay:10.34,2013-08-12 21:17:00,
2013-08-12 17:22:00,74.1,43.9,30.07,West,279,4.0,5.0,34,0.00,CLR,CLR,0.00,WeatherDisplay:10.34,2013-08-12 21:22:00,
2013-08-12 17:27:00,74.3,44.1,30.07,West,281,4.0,4.0,34,0.00,CLR,CLR,0.00,WeatherDisplay:10.34,2013-08-12 21:27:00,
2013-08-12 17:32:00,74.5,44.3,30.07,WSW,248,6.0,7.0,34,0.00,CLR,CLR,0.00,WeatherDisplay:10.34,2013-08-12 21:32:00,
2013-08-12 17:37:00,73.9,43.8,30.07,SW,230,4.0,6.0,34,0.00,CLR,CLR,0.00,WeatherDisplay:10.34,2013-08-12 21:37:00,
2013-08-12 17:42:00,73.4,44.1,30.07,NNW,344,4.0,7.0,35,0.00,CLR,CLR,0.00,WeatherDisplay:10.34,2013-08-12 21:42:00,
2013-08-12 17:47:00,73.2,44.7,30.07,West,259,3.0,3.0,36,0.00,CLR,CLR,0.00,WeatherDisplay:10.34,2013-08-12 21:47:00,
2013-08-12 17:52:00,73.2,45.4,30.07,WNW,290,0.0,5.0,37,0.00,CLR,CLR,0.00,WeatherDisplay:10.34,2013-08-12 21:52:00,
2013-08-12 17:57:00,73.0,47.9,30.07,WSW,254,3.0,3.0,41,0.00,CLR,CLR,0.00,WeatherDisplay:10.34,2013-08-12 21:57:00,
2013-08-12 18:03:00,72.7,48.3,30.07,WNW,289,4.0,5.0,42,0.00,CLR,CLR,0.00,WeatherDisplay:10.34,2013-08-12 22:03:00,
2013-08-12 18:08:00,72.7,48.3,30.07,West,274,4.0,6.0,42,0.00,FEW,FEW,0.00,WeatherDisplay:10.34,2013-08-12 22:08:00,
2013-08-12 18:13:00,72.5,48.1,30.07,West,271,0.0,3.0,42,0.00,FEW,FEW,0.00,WeatherDisplay:10.34,2013-08-12 22:13:00,
2013-08-12 18:19:00,72.1,50.8,30.07,West,273,3.0,3.0,47,0.00,FEW,FEW,0.00,WeatherDisplay:10.34,2013-08-12 22:19:00,
2013-08-12 18:24:00,71.8,51.6,30.07,West,272,0.0,0.0,49,0.00,FEW,FEW,0.00,WeatherDisplay:10.34,2013-08-12 22:24:00,
2013-08-12 18:29:00,71.4,52.3,30.07,WNW,300,4.0,6.0,51,0.00,FEW,FEW,0.00,WeatherDisplay:10.34,2013-08-12 22:29:00,
2013-08-12 18:34:00,71.1,52.0,30.07,WNW,300,0.0,2.0,51,0.00,FEW,FEW,0.00,WeatherDisplay:10.34,2013-08-12 22:34:00,
2013-08-12 18:39:00,70.7,52.2,30.07,WNW,300,0.0,0.0,52,0.00,FEW,FEW,0.00,WeatherDisplay:10.34,2013-08-12 22:39:00,
2013-08-12 18:44:00,70.5,53.1,30.07,WNW,300,0.0,0.0,54,0.00,FEW,FEW,0.00,WeatherDisplay:10.34,2013-08-12 22:44:00,
2013-08-12 18:49:00,70.2,53.7,30.07,WNW,300,0.0,0.0,56,0.00,FEW,FEW,0.00,WeatherDisplay:10.34,2013-08-12 22:49:00,
2013-08-12 18:54:00,69.8,54.4,30.07,WNW,300,0.0,0.0,58,0.00,FEW,FEW,0.00,WeatherDisplay:10.34,2013-08-12 22:54:00,
2013-08-12 18:59:00,69.6,54.7,30.07,WNW,300,0.0,0.0,59,0.00,FEW,FEW,0.00,WeatherDisplay:10.34,2013-08-12 22:59:00,
2013-08-12 19:04:00,69.3,53.8,30.07,WNW,302,0.0,0.0,58,0.00,CLR,CLR,0.00,WeatherDisplay:10.34,2013-08-12 23:04:00,
2013-08-12 19:09:00,69.1,54.1,30.07,WNW,302,0.0,0.0,59,0.00,CLR,CLR,0.00,WeatherDisplay:10.34,2013-08-12 23:09:00,
2013-08-12 19:14:00,68.9,54.4,30.07,WNW,302,0.0,0.0,60,0.00,CLR,CLR,0.00,WeatherDisplay:10.34,2013-08-12 23:14:00,
2013-08-12 19:19:00,68.7,54.3,30.07,WNW,302,0.0,0.0,60,0.00,CLR,CLR,0.00,WeatherDisplay:10.34,2013-08-12 23:19:00,
2013-08-12 19:24:00,68.4,54.4,30.07,WNW,302,0.0,0.0,61,0.00,CLR,CLR,0.00,WeatherDisplay:10.34,2013-08-12 23:24:00,
2013-08-12 19:29:00,68.2,54.7,30.07,WNW,302,0.0,0.0,62,0.00,CLR,CLR,0.00,WeatherDisplay:10.34,2013-08-12 23:29:00,
2013-08-12 19:34:00,68.0,54.5,30.07,WNW,302,0.0,0.0,62,0.00,CLR,CLR,0.00,WeatherDisplay:10.34,2013-08-12 23:34:00,
2013-08-12 19:39:00,67.6,54.2,30.07,WNW,302,0.0,0.0,62,0.00,CLR,CLR,0.00,WeatherDisplay:10.34,2013-08-12 23:39:00,
2013-08-12 19:44:00,67.5,54.0,30.07,WNW,302,0.0,0.0,62,0.00,CLR,CLR,0.00,WeatherDisplay:10.34,2013-08-12 23:44:00,
2013-08-12 19:49:00,67.1,53.6,30.07,WNW,302,0.0,0.0,62,0.00,CLR,CLR,0.00,WeatherDisplay:10.34,2013-08-12 23:49:00,
2013-08-12 19:54:00,66.9,53.9,30.07,WNW,302,0.0,0.0,63,0.00,CLR,CLR,0.00,WeatherDisplay:10.34,2013-08-12 23:54:00,
2013-08-12 19:59:00,66.6,53.6,30.07,WNW,302,0.0,0.0,63,0.00,CLR,CLR,0.00,WeatherDisplay:10.34,2013-08-12 23:59:00,
2013-08-12 20:04:00,66.4,53.8,30.07,WNW,302,0.0,0.0,64,0.00,CLR,CLR,0.00,WeatherDisplay:10.34,2013-08-13 00:04:00,
2013-08-12 20:09:00,66.0,53.9,30.07,WNW,302,0.0,0.0,65,0.00,CLR,CLR,0.00,WeatherDisplay:10.34,2013-08-13 00:09:00,
2013-08-12 20:14:00,65.8,53.7,30.07,WNW,302,0.0,0.0,65,0.00,CLR,CLR,0.00,WeatherDisplay:10.34,2013-08-13 00:14:00,
2013-08-12 20:19:00,65.7,53.6,30.07,WNW,302,0.0,0.0,65,0.00,CLR,CLR,0.00,WeatherDisplay:10.34,2013-08-13 00:19:00,
2013-08-12 20:24:00,65.5,53.8,30.07,WNW,302,0.0,0.0,66,0.00,CLR,CLR,0.00,WeatherDisplay:10.34,2013-08-13 00:24:00,
2013-08-12 20:29:00,65.3,54.1,30.07,WNW,302,0.0,0.0,67,0.00,CLR,CLR,0.00,WeatherDisplay:10.34,2013-08-13 00:29:00,
2013-08-12 20:34:00,65.1,54.3,30.07,WNW,302,0.0,0.0,68,0.00,CLR,CLR,0.00,WeatherDisplay:10.34,2013-08-13 00:34:00,
2013-08-12 20:39:00,64.9,54.1,30.07,WNW,302,0.0,0.0,68,0.00,CLR,CLR,0.00,WeatherDisplay:10.34,2013-08-13 00:39:00,
2013-08-12 20:44:00,64.8,53.9,30.07,WNW,302,0.0,0.0,68,0.00,CLR,CLR,0.00,WeatherDisplay:10.34,2013-08-13 00:44:00,
2013-08-12 20:50:00,64.6,54.2,30.07,WNW,302,0.0,0.0,69,0.00,CLR,CLR,0.00,WeatherDisplay:10.34,2013-08-13 00:50:00,
2013-08-12 20:55:00,64.4,54.0,30.07,WNW,302,0.0,0.0,69,0.00,CLR,CLR,0.00,WeatherDisplay:10.34,2013-08-13 00:55:00,
2013-08-12 21:00:00,64.2,53.8,30.07,WNW,302,0.0,0.0,69,0.00,CLR,CLR,0.00,WeatherDisplay:10.34,2013-08-13 01:00:00,
2013-08-12 21:05:00,64.0,53.7,30.10,WNW,302,0.0,0.0,69,0.00,CLR,CLR,0.00,WeatherDisplay:10.34,2013-08-13 01:05:00,
2013-08-12 21:10:00,63.9,53.5,30.10,WNW,302,0.0,0.0,69,0.00,CLR,CLR,0.00,WeatherDisplay:10.34,2013-08-13 01:10:00,
2013-08-12 21:15:00,63.7,53.3,30.10,WNW,302,0.0,0.0,69,0.00,CLR,CLR,0.00,WeatherDisplay:10.34,2013-08-13 01:15:00,
2013-08-12 21:20:00,63.5,53.1,30.10,WNW,302,0.0,0.0,69,0.00,CLR,CLR,0.00,WeatherDisplay:10.34,2013-08-13 01:20:00,
2013-08-12 21:25:00,63.3,53.4,30.10,WNW,302,0.0,0.0,70,0.00,CLR,CLR,0.00,WeatherDisplay:10.34,2013-08-13 01:25:00,
2013-08-12 21:30:00,63.3,53.4,30.10,WNW,302,0.0,0.0,70,0.00,CLR,CLR,0.00,WeatherDisplay:10.34,2013-08-13 01:30:00,
2013-08-12 21:35:00,63.1,53.2,30.10,WNW,302,0.0,0.0,70,0.00,CLR,CLR,0.00,WeatherDisplay:10.34,2013-08-13 01:35:00,
2013-08-12 21:40:00,63.0,53.4,30.10,WNW,302,0.0,0.0,71,0.00,CLR,CLR,0.00,WeatherDisplay:10.34,2013-08-13 01:40:00,
2013-08-12 21:45:00,63.0,53.4,30.10,WNW,302,0.0,0.0,71,0.00,CLR,CLR,0.00,WeatherDisplay:10.34,2013-08-13 01:45:00,
2013-08-12 21:51:00,63.0,53.8,30.10,WNW,302,0.0,0.0,72,0.00,CLR,CLR,0.00,WeatherDisplay:10.34,2013-08-13 01:51:00,
2013-08-12 21:56:00,63.0,53.8,30.10,WNW,302,0.0,0.0,72,0.00,CLR,CLR,0.00,WeatherDisplay:10.34,2013-08-13 01:56:00,
2013-08-12 22:01:00,63.0,53.8,30.10,WNW,302,0.0,0.0,72,0.00,CLR,CLR,0.00,WeatherDisplay:10.34,2013-08-13 02:01:00,
2013-08-12 22:06:00,63.0,53.8,30.07,WNW,302,0.0,0.0,72,0.00,CLR,CLR,0.00,WeatherDisplay:10.34,2013-08-13 02:06:00,
2013-08-12 22:11:00,63.0,53.8,30.07,WNW,302,0.0,0.0,72,0.00,CLR,CLR,0.00,WeatherDisplay:10.34,2013-08-13 02:11:00,
2013-08-12 22:16:00,63.0,53.8,30.07,WNW,302,0.0,0.0,72,0.00,CLR,CLR,0.00,WeatherDisplay:10.34,2013-08-13 02:16:00,
2013-08-12 22:21:00,63.0,53.8,30.07,WNW,302,0.0,0.0,72,0.00,CLR,CLR,0.00,WeatherDisplay:10.34,2013-08-13 02:21:00,
2013-08-12 22:26:00,63.1,54.0,30.07,WNW,302,0.0,0.0,72,0.00,CLR,CLR,0.00,WeatherDisplay:10.34,2013-08-13 02:26:00,
2013-08-12 22:31:00,63.1,54.3,30.07,WNW,302,0.0,0.0,73,0.00,CLR,CLR,0.00,WeatherDisplay:10.34,2013-08-13 02:31:00,
2013-08-12 22:36:00,63.1,54.0,30.07,WNW,302,0.0,0.0,72,0.00,CLR,CLR,0.00,WeatherDisplay:10.34,2013-08-13 02:36:00,
2013-08-12 22:41:00,63.1,54.0,30.07,WNW,302,0.0,0.0,72,0.00,CLR,CLR,0.00,WeatherDisplay:10.34,2013-08-13 02:41:00,
2013-08-12 22:46:00,63.3,54.1,30.07,WNW,302,0.0,0.0,72,0.00,CLR,CLR,0.00,WeatherDisplay:10.34,2013-08-13 02:46:00,
2013-08-12 22:51:00,63.3,53.8,30.07,WNW,302,0.0,3.0,71,0.00,CLR,CLR,0.00,WeatherDisplay:10.34,2013-08-13 02:51:00,
2013-08-12 22:56:00,63.3,53.8,30.07,WNW,302,0.0,0.0,71,0.00,CLR,CLR,0.00,WeatherDisplay:10.34,2013-08-13 02:56:00,
2013-08-12 23:01:00,63.5,53.9,30.07,WNW,302,0.0,0.0,71,0.00,CLR,CLR,0.00,WeatherDisplay:10.34,2013-08-13 03:01:00,
2013-08-12 23:06:00,63.3,53.8,30.07,WNW,302,0.0,0.0,71,0.00,CLR,CLR,0.00,WeatherDisplay:10.34,2013-08-13 03:06:00,
2013-08-12 23:11:00,63.1,53.2,30.07,WNW,302,0.0,0.0,70,0.00,CLR,CLR,0.00,WeatherDisplay:10.34,2013-08-13 03:11:00,
2013-08-12 23:16:00,63.1,53.6,30.07,WNW,302,0.0,0.0,71,0.00,CLR,CLR,0.00,WeatherDisplay:10.34,2013-08-13 03:16:00,
2013-08-12 23:21:00,63.1,53.6,30.07,WNW,302,0.0,0.0,71,0.00,CLR,CLR,0.00,WeatherDisplay:10.34,2013-08-13 03:21:00,
2013-08-12 23:26:00,63.0,53.4,30.07,WNW,302,0.0,0.0,71,0.00,CLR,CLR,0.00,WeatherDisplay:10.34,2013-08-13 03:26:00,
2013-08-12 23:31:00,63.0,53.0,30.07,WNW,302,0.0,0.0,70,0.00,CLR,CLR,0.00,WeatherDisplay:10.34,2013-08-13 03:31:00,
2013-08-12 23:36:00,62.8,53.2,30.07,WNW,302,0.0,0.0,71,0.00,CLR,CLR,0.00,WeatherDisplay:10.34,2013-08-13 03:36:00,
2013-08-12 23:41:00,62.8,52.8,30.07,WNW,302,0.0,0.0,70,0.00,CLR,CLR,0.00,WeatherDisplay:10.34,2013-08-13 03:41:00,
2013-08-12 23:46:00,62.6,52.7,30.07,WNW,302,0.0,0.0,70,0.00,CLR,CLR,0.00,WeatherDisplay:10.34,2013-08-13 03:46:00,
2013-08-12 23:53:00,62.4,52.9,30.07,WNW,302,0.0,0.0,71,0.00,CLR,CLR,0.00,WeatherDisplay:10.34,2013-08-13 03:53:00,
2013-08-12 23:58:00,62.2,52.7,30.07,WNW,302,0.0,0.0,71,0.00,CLR,CLR,0.00,WeatherDisplay:10.34,2013-08-13 03:58:00,